TimeCDT,TemperatureF,Dew PointF,Humidity,Sea Level PressureIn,VisibilityMPH,Wind Direction,Wind SpeedMPH,Gust SpeedMPH,PrecipitationIn,Events,Conditions,WindDirDegrees,DateUTC
12:53 AM,57.0,48.9,74,30.04,10.0,East,3.5,-,N/A,,Clear,90,2013-09-14 05:53:00
1:53 AM,53.1,48.9,86,30.04,10.0,ENE,4.6,-,N/A,,Clear,70,2013-09-14 06:53:00
2:53 AM,55.0,48.9,80,30.04,10.0,ENE,3.5,-,N/A,,Clear,70,2013-09-14 07:53:00
3:53 AM,54.0,48.9,83,30.04,10.0,East,4.6,-,N/A,,Clear,80,2013-09-14 08:53:00
4:53 AM,53.1,48.9,86,30.05,10.0,East,4.6,-,N/A,,Clear,80,2013-09-14 09:53:00
5:53 AM,54.0,48.9,83,30.06,10.0,East,6.9,-,N/A,,Clear,100,2013-09-14 10:53:00
6:53 AM,55.0,48.9,80,30.06,10.0,ESE,9.2,-,N/A,,Clear,110,2013-09-14 11:53:00
7:53 AM,57.0,50.0,77,30.09,10.0,East,9.2,-,N/A,,Clear,100,2013-09-14 12:53:00
8:53 AM,63.0,51.1,65,30.09,10.0,ESE,10.4,-,N/A,,Clear,120,2013-09-14 13:53:00
9:53 AM,70.0,51.1,51,30.10,10.0,SSE,10.4,-,N/A,,Clear,150,2013-09-14 14:53:00
10:53 AM,72.0,51.1,48,30.10,10.0,ESE,11.5,-,N/A,,Clear,120,2013-09-14 15:53:00
11:53 AM,73.9,50.0,43,30.09,10.0,SE,9.2,-,N/A,,Clear,130,2013-09-14 16:53:00
12:53 PM,75.9,50.0,40,30.06,10.0,ENE,6.9,-,N/A,,Clear,70,2013-09-14 17:53:00
1:53 PM,78.1,48.9,36,30.05,10.0,Variable,3.5,-,N/A,,Clear,0,2013-09-14 18:53:00
2:53 PM,79.0,48.0,34,30.03,10.0,Variable,3.5,-,N/A,,Clear,0,2013-09-14 19:53:00
3:53 PM,80.1,48.9,34,30.00,10.0,ESE,4.6,-,N/A,,Clear,110,2013-09-14 20:53:00
4:53 PM,80.1,48.0,32,29.98,10.0,SSE,6.9,-,N/A,,Clear,150,2013-09-14 21:53:00
6:53 PM,75.9,48.9,38,29.98,10.0,SSE,6.9,-,N/A,,Clear,150,2013-09-14 23:53:00
7:53 PM,72.0,51.1,48,29.98,10.0,SE,5.8,-,N/A,,Clear,130,2013-09-15 00:53:00
8:53 PM,70.0,52.0,53,29.98,10.0,North,-9999.0,-,N/A,,Clear,0,2013-09-15 01:53:00
9:53 PM,69.1,51.1,53,29.98,10.0,SE,9.2,-,N/A,,Clear,140,2013-09-15 02:53:00
10:53 PM,69.1,51.1,53,29.99,10.0,SSE,9.2,-,N/A,,Clear,150,2013-09-15 03:53:00
11:53 PM,66.9,51.1,57,29.99,10.0,SSE,9.2,-,N/A,,Clear,150,2013-09-15 04:53:00